Regional Weather Roundup
Issued by NWS Wakefield, VA

Home | Current Version | Previous Version | Text Only | Print | Product List | Glossary Off
Versions: 1 2 3 4 5 6 7 8 9 10 11 12 13 14 15 16 17 18 19 20 21 22 23 24 25 26 27 28 29 30 31 32 33 34 35 36 37 38 39 40 41 42 43 44 45 46 47 48 49 50

000
ASUS41 KAKQ 040715
RWRAKQ

REGIONAL WEATHER ROUNDUP
NATIONAL WEATHER SERVICE WAKEFIELD VA
300 AM EDT MON MAY 04 2015

Note: "fair" indicates few or no clouds below 12,000 feet with no
significant weather and/or obstructions to visibility. * = Denotes
station may not report precipitation (e.g., rain,snow,etc.),
thunder or fog.

VAZ042-051-052>054-056-040800-
NORTHERN VIRGINIA

CITY           SKY/WX    TMP DP  RH WIND       PRES   REMARKS
WASH NATIONAL  MOCLDY    62  52  69 S5        30.18S
DULLES         PTCLDY    55  44  66 S5        30.17S
FORT BELVOIR   CLEAR     50  48  93 CALM      30.18S
QUANTICO       CLEAR     54  49  83 W5        30.19S
FREDERICKSBRG* CLEAR     54  53  98 CALM      30.18S
STAFFORD*      CLEAR     47  32  56 CALM      30.22S
WARRENTON      CLEAR     46  45  97 CALM      30.18S
CULPEPER*      NOT AVBL
MANASSAS*      CLEAR     50  50 100 CALM      30.18S
LEESBURG*      CLEAR     52  48  87 SW7       30.18S
WINCHESTER     PTCLDY    55  39  54 SW5       30.18R
FRONT ROYAL*   FAIR      54  45  71 S5        30.17S
LURAY*         CLOUDY    50  50 100 CALM      30.20S
$$

VAZ048-049-060>072-079>083-040800-
CENTRAL AND SOUTH CENTRAL VIRGINIA

CITY           SKY/WX    TMP DP  RH WIND       PRES   REMARKS
RICHMOND       CLEAR     55  47  74 CALM      30.20S
CHESTERFIELD*  FAIR      52  37  58 SW3       30.22S
PETERSBURG*    CLEAR     53  47  80 SW6       30.22S
HANOVER        CLEAR     51  48  89 CALM      30.21S
TAPPAHANNOCK*  CLEAR     52  44  72 S3        30.20S
QUINTON*       FAIR      50  48  95 CALM      30.20S
CHARLOTTSVILLE PTCLDY    51  46  83 CALM      30.19S
GORDONSVILLE*  FAIR      49  47  92 SW5       30.19S
ORANGE*        PTCLDY    50  46  87 CALM      30.21S
LOUISA*        MOCLDY    54  46  76 SW3       30.19S
BUMPASS*       FAIR      51  46  81 CALM      30.19F
FARMVILLE*     CLEAR     49  49 100 CALM      30.19F
CREWE*         FAIR      51  47  86 CALM      30.21S
FORT PICKETT*  FAIR      54  47  77 S7        30.22S
CHASE CITY*    FAIR      57  53  84 CALM      30.22S
CLARKSVILLE*   FAIR      55  50  82 SW6       30.22S
SOUTH HILL*    CLEAR     55  46  73 CALM      30.28S
LAWRENCEVILLE* FAIR      55  46  71 CALM      30.23S
EMPORIA*       CLEAR     45  43  93 CALM      30.25S
$$

VAZ088>098-040800-
SOUTHEAST VIRGINIA

CITY           SKY/WX    TMP DP  RH WIND       PRES   REMARKS
NORFOLK        CLEAR     62  45  53 SW9       30.22S
VIRGINIA BEACH CLEAR     60  47  61 SW9       30.22S
NORFOLK NAVAL  CLEAR     66  47  50 SW6       30.24R
WEST POINT*    CLEAR     52  48  86 S5        30.22S
SALUDA*        FAIR      60  48  64 S7        30.20S
NEWPORT NEWS   CLEAR     64  48  56 SW10      30.22S
LANGLEY AFB    CLEAR     61  48  61 W9        30.21S
FORT EUSTIS    CLEAR     62  48  59 VRB5      30.20S
WILLIAMSBURG*  CLEAR     64  52  63 W7        30.23S
HR EXEC AP*    FAIR      57  46  67 SW5       30.25R
FRANKLIN*      CLEAR     56  47  71 S3        30.24S
WAKEFIELD      CLEAR     60  47  61 S5        30.22S
$$

VAZ020-022-025-037-045-040800-
WEST CENTRAL AND SOUTHWEST VIRGINIA

CITY           SKY/WX    TMP DP  RH WIND       PRES   REMARKS
STAUNTON*      CLEAR     46  43  87 CALM      30.23S
WAYNESBORO*    FAIR      50  42  72 CALM      30.21S
HOT SPRINGS VA CLEAR     57  42  55 S10       30.26S
LYNCHBURG      CLEAR     50  45  83 CALM      30.22F
DANVILLE       CLEAR     56  48  74 SW5       30.22S
SOUTH BOSTON*  FAIR      49  48  95 CALM      30.22S
MARTINSVILLE   CLEAR     48  48 100 CALM      30.25S
ROANOKE        CLEAR     52  47  83 CALM      30.23S
BLACKSBURG     CLEAR     49  44  84 CALM      30.25F
DUBLIN*        CLEAR     50  48  92 CALM      30.24S
MARION*        CLEAR     50  46  86 CALM      30.26F
HILLSVILLE*    CLEAR     59  46  63 S7        30.25S
RICHLANDS*     FAIR      61  34  36 S3        30.23S
WISE*          CLEAR     55  37  50 SW6       30.23S
ABINGDON*      CLOUDY    53  45  73 CALM      30.22S
$$

MDZ021>025-VAZ099-100-040800-
SOUTHERN MARYLAND AND THE DELMARVA PENINSULA

CITY           SKY/WX    TMP DP  RH WIND       PRES   REMARKS
PATUXENT RIVER CLEAR     62  46  55 SW9       30.17F
BAY BRIDGE APT   N/A    N/A N/A N/A SE3       30.17S
LEONARDTOWN    CLEAR     57  45  62 CALM      30.20S
DOVER          CLEAR     59  49  70 S7        30.13F
GEORGETOWN     CLEAR     55  47  74 MISG      30.18F
EASTON         CLEAR     59  50  72 CALM      30.21S
CAMBRIDGE      CLEAR     55  50  82 SE3       30.18S
SALISBURY      PTCLDY    50  47  89 CALM      30.18F
OCEAN CITY     CLEAR     48  47  96 SW3       30.19S
WALLOPS ISLAND CLEAR     56  52  86 CALM      30.19F
ACCOMACK*      CLEAR     55  50  82 SW6       30.20S
$$

NCZ012>017-030>032-040800-
NORTH CENTRAL AND EASTERN NORTH CAROLINA

CITY           SKY/WX    TMP DP  RH WIND       PRES   REMARKS
ROANOKE RAPIDS FAIR      52  48  87 CALM      30.24S
RALEIGH        PTCLDY    57  51  80 SW5       30.24F
ELIZABETH CITY CLEAR     58  48  69 SW9       30.24R
AHOSKIE*         N/A     53  48  83 CALM      30.25R
EDENTON*       PTCLDY    57  52  84 SW6       30.25S
CURRITUCK*     CLEAR     60  46  58 SW6       30.24S
KILL DEVIL HLS CLEAR     61  51  70 W5        30.24R
MANTEO         MOCLDY    60  51  72 CALM      30.25S
CAPE HATTERAS  MOCLDY    60  56  86 W5        30.25S
TARBORO*       FAIR      51  49  95 CALM      30.26S
GOLDSBORO      CLEAR     58  49  73 CALM      30.23S
WASHINGTON     CLEAR     57  51  80 CALM      30.25S
GREENVILLE     CLEAR     55  50  82 W5        30.26S
NEW BERN       CLEAR     56  52  86 CALM      30.26S
WILMINGTON     CLEAR     54  52  93 CALM      30.24F
$$

VAZ048-040800-
ELSEWHERE

CITY           SKY/WX    TMP DP  RH WIND       PRES   REMARKS
HARRISBURG PA  PTCLDY    56  48  74 CALM      30.15R
BALTIMORE      PTCLDY    58  45  62 CALM      30.16S
ANNAPOLIS      CLEAR     58  51  78 CALM      30.16S
ANDREWS AFB    CLEAR     55  46  70 S3        30.16S
PHILADELPHIA   CLEAR     58  49  72 CALM      30.17F
HENDERSON NC   CLEAR     54  47  76 S6        30.24S
GREENSBORO     PTCLDY    60  50  69 S8        30.22S
ROCKY MOUNT    CLEAR     53  48  83 CALM      30.25R
$$

VAZ100-040800-
MARINE

STATION/POSITION TIME  TEMP    WIND        PRES    WAVE   SWELL
                       AIR SEA DIR/SP/G            HT/PER HT/PER
                 (UTC) (F)     (DEG/KT/KT) (MB)    (FT/S) (FT/S)
BRANDYWINE LGT   0618          230/ 12/ 12   N/A
CAPE MAY NJ      0624          160/  4/  5   N/A
LEWES DE         0606   63 56  230/  6/  8 1021.8R
15NM E FENWICK I 0650   55 52              1022.2R   4/ 9
OCEAN-CITY-INLET 0606   57 53  250/  3/  3 1021.9S
WACHAPREAGUE VA  0600   61 65  240/  3/  3 1022.6R
THOMAS POINT MD  0700   63 58  180/  9/  9 1022.1S
GOOSES REEF MD   0700   62 59                N/A     1
COVE POINT MD    0600   67     270/ 13/ 14 1022.3R
SOLOMONS ISLAND  0618      60                N/A
BISHOPS HEAD MD  0624          220/  9/ 10   N/A
PINEY POINT MD   0600          240/  3/  4   N/A
CAMBRIDGE MD     0624          200/  1/  2   N/A
LEWISETTA VA     0600   63 64              1021.8S
RAPPAHANNOCK LGT 0600          190/ 12/ 13 1023.0R
YORK RVR RNG VA  0618   64     260/  7/  9 1022.3R
YORKTOWN VA      0618   63 61  220/ 10/ 12 1022.6R
JAMESTOWN VA     0700   63 63  240/ 12/ 16 1022.0S
DOMINION TERM VA 0600   64     230/ 11/ 14 1023.3R
KIPTOPEKE VA     0600      64  230/  8/  9   N/A
CHES BAY BRIDGE  0606   64 59  210/ 15/ 18 1022.6R
CAPE HENRY VA    0600   64     220/ 10/ 13 1021.9R
CHESAPEAKE LGHT  0600   64     230/ 20/ 20 1023.3S
WILLOUBY STN VA  0600   63     220/ 12/ 13 1023.8R
S CRANEY ISL VA  0618          230/  7/ 10 1023.2R
CAPE HENRY BUOY  0628      56                N/A     3/11   2/11
1ST LANDING BUOY 0700      58                N/A     1/ 3
CAPE CHARLES BUO 0626      56                N/A     2/13   2/13
OFFSHORE WE BUOY 0611      51                N/A     3/ 9   3/ 9
64NM E OF VA BCH 0650   62 61  240/ 10/ 14 1023.1S   5/ 9   5/ 9
DUCK PIER NC     0618   63 55  220/  8/ 10 1022.9R
44056 DUCK FRF   0611      56                N/A     4/11   3/11
OREGON INLET NC  0624          240/  7/  9   N/A
HATTERAS NC      0606   64 62  240/  5/  7 1023.7F
DIAMOND SHLS NC  0650   63 60  290/  6/  6 1024.3S   4/11   3/11
CAPE LOOKOUT NC  0700   65     310/  3/  3 1024.1F
$$


USA.gov is the U.S. government's official web portal to all federal, state and local government web resources and services.